Location: downtown San Diego
(32.7310°N, 117.1990°W)
Time: 17:44:34
(UTC-08:00)

COSMOS 2455 - Pass Details

Date: 12 July 2018
Orbit: 902 x 908 km, 67.1° (Epoch: 13 December)

Event Time Altitude Azimuth Distance (km) Brightness Sun altitude
Rises 23:21:36 0° 322° (NW) 3,528 7.0 -31.1°
Reaches altitude 10° 23:24:22 10° 312° (NW) 2,585 6.0 -31.3°
Enters shadow 23:29:07 30° 260° (W) 1,563 4.1 -31.8°
